Flight Track Log - Related Links

Times and Time Zones

All times are in EDT time to prevent confusion due to time zone crossing. See the SWA499 flight status page for this flight to view local times or setup timezone preferences in your user account.

Time Position Orientation Groundspeed Altitude Reporting Facility
EDT Latitude Longitude Course Direction KTS MPH feet Rate Location/Type
Sun 10:27:43 AM 40.8056 -111.9628 353° North 171 197 4,900  Level Salt Lake Center
Sun 10:28:50 AM 40.8722 -111.9739 353° North 239 275 6,700 1,724 Climbing Salt Lake Center
Sun 10:29:10 AM 40.8911 -111.9761 355° North 248 285 7,400 2,963 Climbing Salt Lake Center
Sun 10:30:11 AM 40.9683 -111.9767 360° North 279 321 10,700 3,073 Climbing Salt Lake Center
Sun 10:31:13 AM 40.9806 -111.8847 80° East 287 330 13,700 3,122 Climbing Salt Lake Center
Sun 10:32:14 AM 40.9542 -111.7564 105° East 314 361 17,100 3,000 Climbing Salt Lake Center
Sun 10:33:15 AM 40.9300 -111.6422 106° East 324 373 19,800 2,016 Climbing Salt Lake Center
Sun 10:34:19 AM 40.9169 -111.5089 97° East 376 433 21,300 2,049 Climbing Salt Lake Center
Sun 10:35:18 AM 40.9064 -111.3614 95° East 405 466 24,000 2,400 Climbing Salt Lake Center
Sun 10:36:19 AM 40.8872 -111.2125 100° East 410 472 26,100 2,016 Climbing Salt Lake Center
Sun 10:37:20 AM 40.8694 -111.0581 99° East 421 484 28,100 1,902 Climbing Salt Lake Center
Sun 10:38:22 AM 40.8503 -110.8992 99° East 434 499 30,000 1,854 Climbing Salt Lake Center
Sun 10:39:23 AM 40.8308 -110.7392 99° East 440 506 31,900 1,707 Climbing Salt Lake Center
Sun 10:40:25 AM 40.8069 -110.5561 100° East 451 519 33,500 1,366 Climbing Salt Lake Center
Sun 10:41:26 AM 40.7881 -110.3961 99° East 460 529 34,700 738 Climbing Salt Lake Center
Sun 10:42:27 AM 40.7628 -110.2022 100° East 470 541 35,000 146 Climbing Salt Lake Center
Sun 10:43:29 AM 40.7417 -110.0425 100° East 464 534 35,000  Level Salt Lake Center
Sun 10:44:30 AM 40.7283 -109.8525 95° East 465 535 35,000  Level Salt Lake Center
Sun 10:45:32 AM 40.7178 -109.6892 95° East 465 535 35,000  Level Salt Lake Center
Sun 10:46:33 AM 40.7047 -109.5267 96° East 465 535 35,000  Level Salt Lake Center
Sun 10:47:35 AM 40.6903 -109.3350 96° East 468 539 35,000  Level Salt Lake Center
Sun 10:48:36 AM 40.6797 -109.1819 95° East 466 536 35,000  Level Salt Lake Center
Sun 10:49:37 AM 40.6650 -108.9906 96° East 471 542 35,000  Level Salt Lake Center
Sun 10:50:39 AM 40.6514 -108.8289 96° East 470 541 35,000  Level Salt Lake Center
Sun 10:51:40 AM 40.6369 -108.6436 96° East 461 531 35,000  Level Salt Lake Center
Sun 10:52:42 AM 40.6236 -108.4844 96° East 458 527 35,000  Level Salt Lake Center
Sun 10:53:43 AM 40.6075 -108.2992 96° East 459 528 35,000  Level Salt Lake Center
Sun 10:54:45 AM 40.5944 -108.1397 96° East 460 529 35,000 -49 Level Salt Lake Center
Sun 10:55:46 AM 40.5811 -107.9797 96° East 461 531 34,900 -634 Descending Salt Lake Center
Sun 10:56:48 AM 40.5633 -107.7911 97° East 465 535 33,700 -1,366 Descending Salt Lake Center
Sun 10:57:49 AM 40.5492 -107.6294 97° East 466 536 32,100 -1,182 Descending Salt Lake Center
Sun 10:59:05 AM 40.5317 -107.4300 97° East 448 516 31,000 -739 Descending Denver Center
Sun 11:00:07 AM 40.5164 -107.2533 96° East 438 504 30,400 -1,306 Descending Denver Center
Sun 11:01:09 AM 40.5086 -107.0872 93° East 432 497 28,300 -1,355 Descending Denver Center
Sun 11:02:11 AM 40.5011 -106.9356 94° East 421 484 27,600 -629 Descending Denver Center
Sun 11:03:13 AM 40.4925 -106.7850 94° East 413 475 27,000 -290 Descending Denver Center
Sun 11:04:15 AM 40.4836 -106.6369 94° East 406 467 27,000  Level Denver Center
Sun 11:05:17 AM 40.4753 -106.4803 94° East 414 476 27,000  Level Denver Center
Sun 11:06:19 AM 40.4642 -106.3100 95° East 417 480 27,000 -97 Level Denver Center
Sun 11:07:21 AM 40.4567 -106.1642 94° East 417 480 26,800 -1,065 Descending Denver Center
Sun 11:08:23 AM 40.4456 -106.0114 95° East 409 471 24,800 -1,887 Descending Denver Center
Sun 11:09:25 AM 40.4253 -105.8686 101° East 397 457 22,900 -1,839 Descending Denver Center
Sun 11:10:27 AM 40.4033 -105.7306 102° East 386 444 21,000 -1,742 Descending Denver Center
Sun 11:11:29 AM 40.3819 -105.5950 102° East 377 434 19,300 -1,403 Descending Denver Center
Sun 11:12:31 AM 40.3589 -105.4533 102° East 364 419 18,100 -1,161 Descending Denver Center
Sun 11:13:33 AM 40.3408 -105.3272 101° East 326 375 16,900 -1,306 Descending Denver Center
Sun 11:14:35 AM 40.3256 -105.2111 100° East 325 374 15,400 -1,548 Descending Denver Center
Sun 11:15:37 AM 40.3081 -105.0903 101° East 316 364 13,700 -1,296 Descending Denver Center
Sun 11:16:40 AM 40.2883 -104.9833 104° East 304 350 12,700 -1,104 Descending Denver Center
Sun 11:17:42 AM 40.2447 -104.8853 120° Southeast 293 337 11,400 -1,355 Descending Denver Center
Sun 11:18:44 AM 40.1914 -104.8142 134° Southeast 279 321 9,900 -1,113 Descending Denver Center
Sun 11:19:46 AM 40.1261 -104.7786 157° South 255 293 9,100 -823 Descending Denver Center
Sun 11:20:48 AM 40.0625 -104.7417 156° South 236 272 8,200 -677 Descending Denver Center
Sun 11:21:50 AM 40.0139 -104.7142 157° South 195 224 7,700 -677 Descending Denver Center
Sun 11:22:52 AM 39.9675 -104.6950 162° South 162 186 6,800 -823 Descending Denver Center
Sun 11:23:54 AM 39.9261 -104.6958 181° South 149 171 6,000 -726 Descending Denver Center
Sun 11:24:56 AM 39.8836 -104.6969 181° South 150 173 5,300 -677 Descending Denver Center
Sun 11:26:00 AM 39.8617 -104.6732 North  Level Estimated
Sun 11:33:00 AM 39.8617 -104.6732 North  Level Estimated
Sun 11:34:00 AM 39.8617 -104.6732 North  Level Estimated
Sun 11:35:00 AM 39.8617 -104.6732 North  Level Estimated

Login

Don't have an account? Register now (free) for customized features, flight alerts, and more!